Location: Feydey
(46.3431°N, 7.0106°E)
Time: 23:41:37
(UTC+00:00)

GP-B - Pass Details

Date: 20 June 2021
Orbit: 631 x 634 km, 89.8° (Epoch: 23 July)

Event Time Altitude Azimuth Distance (km) Brightness Sun altitude
Rises 23:18:13 0° 3° (N) 2,942 8.1 -20.1°
Reaches altitude 10° 23:20:28 10° 5° (N) 2,029 6.9 -20.2°
Maximum altitude 23:24:55 73° 91° (E) 667 3.1 -20.2°
Enters shadow 23:26:01 49° 159° (SSE) 815 3.2 -20.2°
